Regional Weather Roundup
Issued by NWS Jackson, KY

Home | Current Version | Previous Version | Text Only | Print | Product List | Glossary Off
Versions: 1 2 3 4 5 6 7 8 9 10 11 12 13 14 15 16 17 18 19 20 21 22 23 24 25 26 27 28 29 30 31 32 33 34 35 36 37 38 39 40 41 42 43 44 45 46 47 48 49 50

000
ASUS43 KJKL 301310
RWRJKL

EAST KENTUCKY HOURLY WEATHER ROUNDUP
NATIONAL WEATHER SERVICE JACKSON KY
900 AM EDT THU OCT 30 2014

NOTE: "FAIR" INDICATES FEW OR NO CLOUDS BELOW 12,000 FEET WITH
NO SIGNIFICANT WEATHER AND/OR OBSTRUCTIONS TO VISIBILITY.

* THESE REPORTS ARE NOT UNDER NWS QUALITY CONTROL AND MAY NOT
  REPORT WEATHER SUCH AS PRECIPITATION AND FOG.

KYZ079-080-083-085-087-088-110-112-115-119-120-301400
...EASTERN KENTUCKY...

CITY           SKY/WX    TMP DP  RH WIND       PRES   REMARKS
JACKSON        MOSUNNY   42  33  70 CALM      30.15R
LONDON         SUNNY     41  36  82 N3        30.15R
SOMERSET*      SUNNY     36  36 100 CALM      30.17R
MONTICELLO*    SUNNY     36  35  96 CALM      30.18R
MIDDLESBORO*   FOG       35  35 100 CALM      30.15R VSB<1/4
HARLAN APT*    CLOUDY    36  36 100 NE3       30.14R VSB<1/4
HAZARD APT*    SUNNY     37  37 100 CALM      30.15R
BLACK MTN*       N/A     36  30  80 NW1         N/A
PIKEVILLE APT* MOSUNNY   39  36  87 CALM      30.14R
BIG SANDY*     CLOUDY    39  38  94 CALM      30.16R
MOREHEAD APT*  CLOUDY    39  37  93 CALM      30.19R
$$

KYZ035-036-041-042-044-050-067-078-099-301400
...CENTRAL KENTUCKY...

CITY           SKY/WX    TMP DP  RH WIND       PRES   REMARKS
MT STERLING*   CLOUDY    36  36 100 CALM      30.18R FOG
FLEMING/MASON* CLOUDY    43  37  81 CALM      30.18R
DANVILLE*      CLEAR     34  34 100 CALM      30.17R
RICHMOND*      CLEAR     34  32  93 CALM      30.15S
LEXINGTON      CLOUDY    37  34  89 CALM      30.17R
FRANKFORT      CLOUDY    37  35  92 CALM      30.16R
$$

KYZ091>093-OHZ055-061-077-WVZ005-015-034-035-042-301400
...SOUTHERN OHIO/WEST VIRGINIA...

CITY           SKY/WX    TMP DP  RH WIND       PRES   REMARKS
COVINGTON      PTCLDY    38  33  82 CALM      30.16S
COLUMBUS       MOSUNNY   42  36  79 N3        30.15R
DAYTON         MOCLDY    43  37  79 CALM      30.16S
WILMINGTON     CLOUDY    42  35  76 N5        30.15R
HUNTINGTON     CLOUDY    39  38  96 CALM      30.16R
CHARLESTON     PTSUNNY   41  39  93 CALM      30.15R
PINEVILLE*     FOG       38  38 100 MISG      30.18R VSB<1/4
BECKLEY        CLOUDY    36  32  85 CALM      30.10R
BLUEFIELD      SUNNY     38  34  85 W6        30.10R WCI  33
$$

VAZ002-007-008-TNZ017-027-036-066-071-301400
...SOUTHWEST VIRGINIA/EAST TENNESSEE...

CITY           SKY/WX    TMP DP  RH WIND       PRES   REMARKS
WISE*          SUNNY     36  36 100 CALM      30.12R FOG
JONESVILLE*    SUNNY     32  32 100 CALM      30.15R FOG
ABINGDON*      FOG       37  37 100 CALM      30.11R VSB<1/4
BRISTOL        FOG       41  41 100 CALM      30.12R VSB 1/16
KNOXVILLE      MOSUNNY   40  38  93 CALM      30.12R
OAK RIDGE      FOG       40  39  97 CALM      30.14R VSB 1/4
CROSSVILLE     SUNNY     39  35  86 CALM      30.13R
NASHVILLE      CLEAR     42  40  92 CALM      30.17S
$$

...KEY TO REMARKS...
VSB - VISIBILITY IN MILES
WCI - WIND CHILL INDEX
HX  - HEAT INDEX

$$



USA.gov is the U.S. government's official web portal to all federal, state and local government web resources and services.